Погода в Арги-Паги

Россия / Сахалинская область     51°20′51″N   142°43′46″E
темп.,
°C
ветер,
м/с
пор.,
м/с
влажн.,
%
обл.,
%
осадки,
мм/ч
давл.,
гПа
погр.,
м
23 сентября, чт
чт2323:00+7ссв258197 0.0 1017141
02:00+4св22961 0.0 101734
05:00+3ссв22965 0.0 101731
08:00+4с12976 0.0 101848
11:00+10с36670 0.0 1018855
14:00+13с465890 0.3 10181554
17:00+11с467443 0.9 1018784
20:00+7ссз229655 0.6 102027
24 сентября, пт
пт2423:00+5ссз119650 0.4 102011
02:00+5зсз1197100 0.0 102013
05:00+5зсз119837 0.0 102016
08:00+6сз1994100 0.0 1021392
11:00+10с488474 0.1 1021790
14:00+10с488299 1.0 10211233
17:00+11ссв3778100 1.3 1021935
20:00+8с118927 0.2 102326
25 сентября, сб
сб2523:00+5ссз229415 0.2 102419
02:00+4ссз11954 0.0 102412
05:00+3зюз00950 0.0 102510
08:00+3ю119511 0.0 102514
11:00+11сз127464 0.0 1025484
14:00+16сз13424 0.0 10231121
17:00+15зсз33515 0.0 1023854
20:00+7юз11870 0.0 102410
26 сентября, вс
вс2623:00+6ююз22911 0.0 102525
02:00+5ю22905 0.0 102435
05:00+4ю238959 0.0 102450
08:00+4ю238579 0.0 102465
11:00+12юз36647 0.0 1022446
14:00+16з455680 0.0 10211041
17:00+15з3562100 0.0 1020712
20:00+9юз119190 0.0 102011
27 сентября, пн
пн2723:00+8ююз229496 0.0 102032
02:00+9ю1187100 0.0 101932
05:00+9ююз1187100 0.0 101920
08:00+9ююз2384100 0.0 101984
11:00+13ююз1271100 0.0 1018348
14:00+17юз136295 0.0 10171032
17:00+16зсз1166100 0.0 1015767
20:00+10в1192100 0.0 101510